Zurück zum Katalog

METEOSAT 1

AktivWetterGEO
NORAD 10489·PAYLOAD·🇪🇺 EU

Gestartet Nov 23, 1977 von Cape Canaveral Space Force Station

Loading…

TLE

AktuellSource: Space-Track

Epoche: Sep 14, 2026, 14:03 UTC

1 10489U 77108A   26257.58584772  .00000062  00000-0  00000-0 0  9991
2 10489   4.8570 280.1742 0007444  99.1725 239.3802  1.00375689138103

Verfolge METEOSAT 1 in Echtzeit mit AllMySat

Download on the App Store